#timestamp,LO_Frequency,Hit,StdDev 
1672452015.1,286047025.0,N
1672452035.9,286047028.1,N
1672452055.7,286047028.3,N
1672452075.5,286047026.8,N
1672452095.4,286047034.2,N
1672452115.2,286047031.8,N
1672452135.1,286047026.8,N
1672452136.0,286047026.8,N
1672452155.8,286047020.9,N
1672452175.6,286047027.0,N
1672452195.5,286047025.3,N
1672452215.3,286047027.0,N
1672452235.1,286047019.8,N
1672452255.9,286047021.0,N
1672452275.7,286047020.6,N
1672452295.6,286047016.3,N
1672452315.4,286047017.9,N
1672452335.2,286047022.6,N
1672452355.1,286047018.7,N
1672452356.0,286047018.7,N
1672452375.8,286047017.4,N
1672452395.6,286047012.7,N
1672452415.5,286047017.1,N
1672452435.3,286047019.6,N
1672452455.2,286047028.7,Y
1672452475.9,286047001.4,P
1672452495.7,286046997.7,N
1672452515.6,286046995.8,N
1672452535.4,286046992.6,N
1672452555.2,286047001.9,N
1672452575.1,286047000.9,N
1672452576.0,286047000.9,N
1672452595.8,286047000.3,N
1672452615.6,286046998.5,N
1672452635.5,286046995.9,N
1672452655.3,286046991.0,N
1672452675.2,286046986.2,N
1672452695.9,286046990.7,N
1672452715.7,286046997.7,N
1672452735.6,286046997.9,N
1672452755.4,286046994.5,N
1672452775.2,286046993.2,N
1672452795.1,286046996.9,N
1672452796.0,286046996.9,N
1672452815.8,286047002.1,N
1672452835.7,286046998.2,N
1672452855.5,286046996.5,N
1672452875.3,286046997.8,N
1672452895.2,286046990.3,N
1672452915.0,286046991.5,N
1672452915.9,286046991.5,N
1672452935.7,286046992.9,N
1672452955.6,286046993.5,N
1672452975.4,286046999.3,N
1672452995.3,286047002.3,N
1672453015.1,286046993.5,N
1672453016.0,286046993.5,N
1672453035.8,286046998.9,N
1672453055.7,286047001.0,N
1672453075.5,286047002.2,N
1672453095.3,286046999.7,N
1672453115.2,286047000.7,N
1672453135.0,286046998.3,N
1672453135.9,286046998.3,N
1672453155.8,286047004.0,N
1672453175.6,286047010.3,N
1672453195.4,286047007.9,N
1672453215.3,286047011.6,N
1672453235.1,286047008.8,N
1672453255.9,286047005.7,N
1672453275.7,286047005.6,N
1672453295.5,286047005.8,N
1672453315.4,286047002.6,N
1672453335.2,286047003.0,N
1672453355.1,286046997.0,N
1672453356.0,286046997.0,N
1672453375.8,286046990.5,N
1672453395.6,286046985.5,N
1672453415.5,286046989.5,N
1672453435.3,286046994.7,N
1672453455.2,286047002.2,N
1672453475.9,286047007.6,N
1672453495.7,286046996.9,N
1672453515.6,286046995.4,N
1672453535.4,286046997.1,N
1672453555.2,286046992.0,N
1672453575.1,286046985.3,N
1672453576.0,286046985.3,N
1672453595.8,286046989.0,N
1672453615.7,286046989.7,N
1672453635.5,286046988.3,N
1672453655.3,286046991.7,N
1672453675.2,286046993.3,N
1672453695.0,286046988.7,N
1672453695.9,286046988.7,N
1672453715.8,286046991.0,N
1672453735.6,286046997.7,N
1672453755.4,286047002.5,N
1672453775.3,286046998.7,N
1672453795.1,286046999.4,N
1672453815.8,286047003.6,N
1672453835.7,286046998.1,N
1672453855.5,286047000.3,N
1672453875.4,286046992.3,N
1672453895.2,286046994.6,N
1672453915.0,286046995.0,N
1672453915.9,286046995.0,N
1672453935.8,286046993.3,N
1672453955.6,286046991.3,N
1672453975.4,286046994.0,N
1672453995.3,286046998.2,N
1672454015.1,286047005.5,N
1672454035.9,286047001.3,N
1672454055.7,286047015.0,N
1672454075.5,286047008.5,N
1672454095.4,286046994.9,N
1672454115.2,286046996.9,N
1672454135.0,286047007.0,N
1672454135.9,286047007.0,N
1672454155.8,286047012.7,N
1672454175.6,286047012.8,N
1672454195.5,286047006.8,N
1672454215.8,286047003.2,N
1672454235.6,286047009.5,N
1672454255.5,286047011.0,N
1672454275.3,286047005.9,N
1672454295.1,286047006.0,N
1672454315.9,286047004.5,N
1672454335.7,286047002.5,N
1672454355.5,286047003.6,N
1672454375.4,286047005.4,N
1672454395.2,286047000.3,N
1672454415.1,286046990.1,N
1672454416.0,286046990.1,N
1672454435.8,286046992.7,N
1672454455.6,286046987.9,N
1672454475.5,286046992.6,N
1672454495.3,286047000.4,N
1672454515.1,286047008.4,N
1672454535.9,286047017.2,N
1672454555.7,286047023.0,Y
1672454575.6,286047028.4,P
1672454595.4,286047019.8,N
1672454615.2,286047016.4,N
1672454635.1,286047012.0,N
1672454636.0,286047012.0,N
1672454655.8,286047007.5,N
1672454675.6,286047011.5,N
1672454695.5,286047013.9,N
1672454715.3,286047012.7,N
1672454735.2,286047009.6,N
1672454755.9,286047006.3,N
1672454775.7,286047002.1,N
1672454795.6,286046997.2,N
1672454815.4,286047000.5,N
1672454835.2,286047005.3,N
1672454855.1,286047006.2,N
1672454856.0,286047006.2,N
1672454875.8,286047008.2,N
1672454895.7,286047005.1,N
1672454915.5,286047005.3,N
1672454935.3,286047005.8,N
1672454955.2,286047007.8,N
1672454975.0,286047016.1,N
1672454975.9,286047016.1,N
1672454995.8,286047019.8,Y
1672455015.6,286047006.4,P
1672455035.4,286047000.0,N
1672455055.3,286047002.3,N
1672455075.1,286047001.2,N
1672455095.8,286046997.9,N
1672455115.7,286046996.9,N
1672455135.5,286047004.1,N
1672455155.3,286047000.7,N
1672455175.2,286046998.9,N
1672455195.0,286046995.2,N
1672455195.9,286046995.2,N
1672455215.8,286046998.0,N
1672455235.6,286046997.7,N
1672455255.4,286047006.0,N
1672455275.3,286047009.4,N
1672455295.1,286047005.9,N
1672455315.8,286047004.1,N
1672455335.7,286047010.0,N
1672455355.5,286047015.2,Y
1672455375.4,286047008.2,P
1672455395.2,286047005.9,N
1672455415.0,286047012.4,P
1672455415.9,286047012.4,Y
1672455435.8,286047004.7,P
1672455455.6,286047003.1,N
1672455475.5,286047006.6,P
1672455495.3,286047009.6,Y
1672455515.1,286046999.0,P
1672455535.9,286046992.2,N
1672455555.7,286046997.9,N
1672455575.6,286046984.4,Y
1672455595.4,286046989.9,P
